Weather in Ullubiyaul

Russia / Republic of Dagestan     42°35′49″N   47°43′03″E
temp.,
°C
wind,
m/s
gust,
m/s
humid.,
%
clouds,
%
prec.,
mm/h
press.,
hPa
HPBL,
m
28 september, tue
tue2800:00+15nne3465100 0.1 1017506
03:00+14n2365100 0.1 1017415
06:00+14ne1167100 0.0 1018372
09:00+14sse2268100 0.0 1018479
12:00+14e2169100 0.0 1018685
15:00+13nne1174100 0.1 1019489
18:00+13sw0175100 0.1 1020117
21:00+13n1174100 0.1 1021123
29 september, wed
wed2900:00+13wnw1175100 0.0 102184
03:00+13nw117291 0.0 102166
06:00+12nnw127261 0.0 102265
09:00+14nne116198 0.0 1022730
12:00+13nne1168100 0.1 1022584
15:00+12n3488100 1.1 1022374
18:00+11nnw3488100 2.4 1023423
21:00+11w2286100 3.6 1023170
30 september, thu
thu3000:00+11nnw3495100 5.0 1023293
03:00+11nne2395100 13.3 1022324
06:00+11ene4797100 13.8 1023553
09:00+11ene5796100 24.9 1024578
12:00+10ne4794100 11.3 1025582
15:00+10nne3494100 17.1 1026369
18:00+10nne3495100 6.1 1027382
21:00+9ne2392100 14.3 1028408
1 october, fri
fri100:00+9ne0190100 4.7 1028306
03:00+9sw1282100 5.3 1028179
06:00+10nnw1180100 0.1 102979
09:00+9n1192100 0.8 1030184
12:00+9nnw0186100 0.9 1030146
15:00+10wsw1181100 1.2 1030235
18:00+9sw1183100 0.3 1031130
21:00+9wsw1183100 0.4 103199
2 october, sat
sat200:00+9wsw1182100 0.1 103187
03:00+9sw1282100 0.2 103090
06:00+9sw2279100 0.1 103098
09:00+11ssw237198 0.1 1030276
12:00+13se345865 0.0 1029983
15:00+13e446576 0.1 1029952
18:00+12sse237384 0.1 1030211
21:00+11s237282 0.1 1030141